Flag for Germany Weather past 2 weeks in Braunschweig, Lower Saxony, Germany

41 °F

Passing clouds.

Feels Like: 34 °F
Forecast: 38 / 51 °F
Wind: 12 mph from West

Location: Braunschweig

Current Time: Nov 28, 2015 at 6:37:29 PM

Latest Report: Nov 28, 2015 at 5:20 PM

Visibility: N/A

Pressure: 29.86 "Hg

Humidity: 76%

Dew point: 34 °F

Location of BraunschweigLocation

Historic Weather in Braunschweig — Graph


Braunschweig temperature yesterday

Maximum temperature yesterday: 45 °F (at 1:50 PM)
Minimum temperature yesterday: 32 °F (at 7:50 AM)
Average temperature yesterday: 38 °F

Past Weeks' High & Low Weather Summary

High57 °F (Nov 17, 1:20 PM)100% (Nov 13, 8:50 PM)30.21 "Hg (Nov 13, 8:50 PM)
Low32 °F (Nov 22, 4:50 PM)58% (Nov 13, 5:50 PM)29.36 "Hg (Nov 21, 7:50 AM)
Average45 °F85%29.80 "Hg
* Reported Nov 13 5:20 PM — Nov 28 5:20 PM, Braunschweig, Weather by CustomWeather, © 2015

Note: Actual official high and low records may vary slightly from our data, if they occured in-between our weather recording intervals... More about our weather records


Braunschweig weather history for previous 24 hours

Time TempWeatherWind HumidityBarometerVisibility
5:20 PM
Sat, Nov 28
41 °FPassing clouds.12 mph76%29.86 "HgN/A
4:50 PM41 °FPassing clouds.12 mph76%29.86 "HgN/A
4:20 PM43 °FPassing clouds.10 mph71%29.86 "HgN/A
3:50 PM43 °FScattered clouds.10 mph76%29.83 "HgN/A
3:20 PM43 °FPassing clouds.14 mph76%29.83 "HgN/A
2:50 PM43 °FScattered clouds.13 mph76%29.83 "HgN/A
2:20 PM45 °FPassing clouds.14 mph76%29.80 "HgN/A
1:50 PM45 °FScattered clouds.13 mph76%29.80 "HgN/A
1:20 PM43 °FBroken clouds.15 mph87%29.77 "HgN/A
12:50 PM45 °FBroken clouds.14 mph87%29.77 "HgN/A
12:20 PM41 °FMostly cloudy.12 mph93%29.74 "HgN/A
11:50 AM41 °FDrizzle. Mostly cloudy.10 mph93%29.74 "Hg4 mi
11:20 AM41 °FDrizzle. Mostly cloudy.9 mph93%29.74 "HgN/A
10:50 AM39 °FDrizzle. Low clouds.12 mph93%29.71 "HgN/A
10:20 AM37 °FLight rain. Low clouds.13 mph93%29.68 "HgN/A
9:50 AM36 °FLight rain. Low clouds.14 mph93%29.68 "HgN/A
9:20 AM36 °FLight rain. Cloudy.16 mph93%29.68 "HgN/A
8:50 AM36 °FLight rain. Mostly cloudy.16 mph87%29.65 "HgN/A
10:50 PM
Fri, Nov 27
36 °FClear.12 mph81%29.83 "Hg10 mi
10:20 PM36 °FClear.9 mph75%29.86 "Hg10 mi
9:50 PM34 °FClear.9 mph81%29.86 "Hg10 mi
9:20 PM34 °FClear.9 mph81%29.86 "Hg10 mi
8:50 PM36 °FClear.10 mph75%29.89 "Hg10 mi
8:20 PM36 °FClear.9 mph75%29.89 "Hg10 mi
7:50 PM36 °FClear.10 mph75%29.92 "Hg10 mi
7:20 PM36 °FClear.9 mph81%29.92 "Hg10 mi
6:50 PM36 °FClear.9 mph81%29.92 "Hg10 mi
6:20 PM37 °FClear.8 mph75%29.95 "Hg10 mi
Weather by CustomWeather, © 2015

See weather overviewHow to use our weather pages